DAL1622 KLAS-KSLC

Flight info

Callsign DAL1622
Flight time 0h 59m
Altitude 33000
Route RATPK3 FRNCK MLF QWENN6
Aircraft A321/M-SDE3FGHIRWY/LB1

Departure

Time 2026-05-06 19:28
Airport Harry Reid International Airport (KLAS)

Arrival

Time 2026-05-06 20:28
Airport Salt Lake City International Airport (KSLC)
Time Latitude Longitude Altitude Speed Heading
2026-05-06 19:01 36.08021 -115.13936 2093 ft 0 kts 315°
2026-05-06 19:20 36.08016 -115.13929 2093 ft 4 kts 315°
2026-05-06 19:21 36.07997 -115.13905 2093 ft 4 kts 315°
2026-05-06 19:21 36.07981 -115.13886 2093 ft 3 kts 314°
2026-05-06 19:21 36.07968 -115.13861 2093 ft 4 kts 268°
2026-05-06 19:21 36.07977 -115.13839 2093 ft 4 kts 225°
2026-05-06 19:22 36.07986 -115.13827 2093 ft 0 kts 225°
2026-05-06 19:23 36.07969 -115.13849 2093 ft 12 kts 225°
2026-05-06 19:24 36.07893 -115.13940 2093 ft 15 kts 216°
2026-05-06 19:24 36.07828 -115.13892 2093 ft 13 kts 95°
2026-05-06 19:24 36.07829 -115.13740 2092 ft 23 kts 90°
2026-05-06 19:24 36.07828 -115.13544 2091 ft 22 kts 90°
2026-05-06 19:25 36.07827 -115.13351 2089 ft 22 kts 90°
2026-05-06 19:25 36.07829 -115.13156 2084 ft 23 kts 90°
2026-05-06 19:25 36.07829 -115.12958 2076 ft 19 kts 90°
2026-05-06 19:25 36.07829 -115.12782 2068 ft 22 kts 90°
2026-05-06 19:26 36.07828 -115.12588 2061 ft 22 kts 90°
2026-05-06 19:26 36.07829 -115.12390 2057 ft 23 kts 90°
2026-05-06 19:26 36.07796 -115.12219 2051 ft 20 kts 127°
2026-05-06 19:26 36.07721 -115.12130 2050 ft 15 kts 161°
2026-05-06 19:27 36.07641 -115.12154 2051 ft 8 kts 263°
2026-05-06 19:27 36.07643 -115.12206 2050 ft 4 kts 269°
2026-05-06 19:27 36.07641 -115.12318 2052 ft 38 kts 269°
2026-05-06 19:27 36.07640 -115.12929 2071 ft 101 kts 270°
2026-05-06 19:28 36.07639 -115.14011 2094 ft 149 kts 270°
2026-05-06 19:28 36.07640 -115.15459 2116 ft 186 kts 270°
2026-05-06 19:28 36.07643 -115.17089 2567 ft 190 kts 270°
2026-05-06 19:28 36.07639 -115.18730 3227 ft 190 kts 270°
2026-05-06 19:29 36.07632 -115.20360 3824 ft 188 kts 270°
2026-05-06 19:29 36.07622 -115.21957 4212 ft 194 kts 271°
2026-05-06 19:29 36.07615 -115.23708 4334 ft 214 kts 271°
2026-05-06 19:29 36.07628 -115.25666 4495 ft 236 kts 274°
2026-05-06 19:30 36.08183 -115.27621 4703 ft 252 kts 313°
2026-05-06 19:30 36.09608 -115.28744 5374 ft 249 kts 345°
2026-05-06 19:30 36.11315 -115.29242 6152 ft 248 kts 348°
2026-05-06 19:30 36.12988 -115.29616 6899 ft 248 kts 359°
2026-05-06 19:31 36.14586 -115.29312 7582 ft 249 kts 20°
2026-05-06 19:31 36.16089 -115.28176 8051 ft 265 kts 44°
2026-05-06 19:31 36.17904 -115.24012 9253 ft 283 kts 66°
2026-05-06 19:32 36.18617 -115.21731 9978 ft 286 kts 65°
2026-05-06 19:32 36.19290 -115.19366 10355 ft 302 kts 72°
2026-05-06 19:32 36.19639 -115.16694 10484 ft 328 kts 84°
2026-05-06 19:32 36.19647 -115.13794 10798 ft 342 kts 87°
2026-05-06 19:33 36.19635 -115.10832 11433 ft 346 kts 87°
2026-05-06 19:33 36.19628 -115.07845 12068 ft 348 kts 87°
2026-05-06 19:33 36.19622 -115.04841 12762 ft 350 kts 87°
2026-05-06 19:33 36.19619 -115.01820 13434 ft 352 kts 87°
2026-05-06 19:34 36.19619 -114.98783 14125 ft 353 kts 86°
2026-05-06 19:34 36.19621 -114.95735 14726 ft 355 kts 86°
2026-05-06 19:34 36.19646 -114.92666 15292 ft 357 kts 83°
2026-05-06 19:34 36.20043 -114.89639 15836 ft 357 kts 72°
2026-05-06 19:35 36.20918 -114.86771 16388 ft 356 kts 61°
2026-05-06 19:35 36.22235 -114.84174 16923 ft 357 kts 50°
2026-05-06 19:35 36.23282 -114.82594 17275 ft 359 kts 49°
2026-05-06 19:35 36.25419 -114.79393 17997 ft 362 kts 49°
2026-05-06 19:36 36.26485 -114.77793 18341 ft 364 kts 49°
2026-05-06 19:36 36.28105 -114.75361 18798 ft 367 kts 49°
2026-05-06 19:36 36.29730 -114.72916 19270 ft 369 kts 49°
2026-05-06 19:36 36.31899 -114.69644 19883 ft 372 kts 49°
2026-05-06 19:37 36.33545 -114.67162 20348 ft 374 kts 49°
2026-05-06 19:37 36.34662 -114.65474 20655 ft 375 kts 49°
2026-05-06 19:37 36.36342 -114.62988 21102 ft 377 kts 45°
2026-05-06 19:37 36.38291 -114.60821 21537 ft 377 kts 36°
2026-05-06 19:38 36.40384 -114.58851 21972 ft 379 kts 36°
2026-05-06 19:38 36.42494 -114.56864 22419 ft 382 kts 36°
2026-05-06 19:38 36.44611 -114.54865 22865 ft 384 kts 36°
2026-05-06 19:38 36.46738 -114.52849 23309 ft 386 kts 36°
2026-05-06 19:39 36.48879 -114.50817 23702 ft 388 kts 36°
2026-05-06 19:39 36.51025 -114.48775 24074 ft 389 kts 36°
2026-05-06 19:39 36.53176 -114.46726 24481 ft 390 kts 36°
2026-05-06 19:39 36.55394 -114.44796 24858 ft 390 kts 31°
2026-05-06 19:40 36.57701 -114.43006 25225 ft 391 kts 31°
2026-05-06 19:40 36.60017 -114.41214 25585 ft 392 kts 31°
2026-05-06 19:40 36.62309 -114.39445 25944 ft 394 kts 31°
2026-05-06 19:40 36.64642 -114.37647 26300 ft 395 kts 31°
2026-05-06 19:41 36.66984 -114.35840 26637 ft 397 kts 31°
2026-05-06 19:41 36.69332 -114.34020 26981 ft 398 kts 31°
2026-05-06 19:41 36.71684 -114.32187 27324 ft 399 kts 31°
2026-05-06 19:41 36.74043 -114.30349 27659 ft 401 kts 31°
2026-05-06 19:42 36.76413 -114.28504 27989 ft 402 kts 31°
2026-05-06 19:42 36.78789 -114.26652 28294 ft 404 kts 31°
2026-05-06 19:42 36.81177 -114.24790 28580 ft 406 kts 31°
2026-05-06 19:42 36.83576 -114.22919 28878 ft 407 kts 31°
2026-05-06 19:43 36.85984 -114.21042 29172 ft 409 kts 31°
2026-05-06 19:43 36.88397 -114.19162 29462 ft 410 kts 31°
2026-05-06 19:43 36.90821 -114.17274 29748 ft 411 kts 31°
2026-05-06 19:43 36.93253 -114.15377 30028 ft 413 kts 31°
2026-05-06 19:44 36.95691 -114.13471 30284 ft 414 kts 31°
2026-05-06 19:44 36.98128 -114.11560 30612 ft 413 kts 31°
2026-05-06 19:44 37.00553 -114.09656 30974 ft 411 kts 31°
2026-05-06 19:44 37.02969 -114.07760 31357 ft 409 kts 31°
2026-05-06 19:45 37.05379 -114.05871 31690 ft 408 kts 32°
2026-05-06 19:45 37.07787 -114.03983 31982 ft 408 kts 31°
2026-05-06 19:45 37.10194 -114.02091 32307 ft 408 kts 31°
2026-05-06 19:45 37.12590 -114.00204 32647 ft 406 kts 31°
2026-05-06 19:46 37.14982 -113.98320 32928 ft 406 kts 31°
2026-05-06 19:46 37.17357 -113.96452 32988 ft 399 kts 31°
2026-05-06 19:46 37.22098 -113.92710 32998 ft 408 kts 31°
2026-05-06 19:47 37.26908 -113.88906 33000 ft 413 kts 31°
2026-05-06 19:47 37.31775 -113.85059 33014 ft 413 kts 31°
2026-05-06 19:48 37.36631 -113.81205 33011 ft 412 kts 31°
2026-05-06 19:48 37.41480 -113.77348 33006 ft 412 kts 32°
2026-05-06 19:49 37.46327 -113.73495 33033 ft 412 kts 31°
2026-05-06 19:49 37.51173 -113.69646 33039 ft 411 kts 31°
2026-05-06 19:50 37.56011 -113.65795 33035 ft 411 kts 31°
2026-05-06 19:50 37.60842 -113.61941 33042 ft 411 kts 31°
2026-05-06 19:51 37.65668 -113.58077 33034 ft 411 kts 31°
2026-05-06 19:51 37.70497 -113.54211 33044 ft 411 kts 31°
2026-05-06 19:52 37.75329 -113.50348 33031 ft 411 kts 31°
2026-05-06 19:52 37.80157 -113.46488 33020 ft 411 kts 31°
2026-05-06 19:53 37.84987 -113.42623 33073 ft 411 kts 31°
2026-05-06 19:53 37.89814 -113.38742 33068 ft 411 kts 31°
2026-05-06 19:54 37.94645 -113.34857 33060 ft 411 kts 31°
2026-05-06 19:54 37.99480 -113.30972 33033 ft 412 kts 31°
2026-05-06 19:55 38.04316 -113.27081 33038 ft 412 kts 31°
2026-05-06 19:55 38.09147 -113.23176 33048 ft 412 kts 31°
2026-05-06 19:56 38.13948 -113.19284 33072 ft 412 kts 31°
2026-05-06 19:56 38.17488 -113.16411 33094 ft 412 kts 31°
2026-05-06 19:57 38.21345 -113.13282 33119 ft 412 kts 31°
2026-05-06 19:57 38.26174 -113.09358 33165 ft 412 kts 31°
2026-05-06 19:58 38.30993 -113.05430 33184 ft 411 kts 31°
2026-05-06 19:58 38.35834 -113.01547 33193 ft 410 kts 27°
2026-05-06 19:59 38.41056 -112.98645 33189 ft 410 kts 22°
2026-05-06 19:59 38.46327 -112.95857 33188 ft 410 kts 22°
2026-05-06 20:00 38.51596 -112.93051 33178 ft 410 kts 22°
2026-05-06 20:00 38.56865 -112.90241 33158 ft 410 kts 22°
2026-05-06 20:01 38.62132 -112.87425 33147 ft 410 kts 22°
2026-05-06 20:01 38.67398 -112.84599 33095 ft 410 kts 22°
2026-05-06 20:02 38.72665 -112.81763 33095 ft 411 kts 22°
2026-05-06 20:02 38.77931 -112.78926 33096 ft 411 kts 22°
2026-05-06 20:03 38.83203 -112.76088 33112 ft 411 kts 22°
2026-05-06 20:03 38.88465 -112.73252 33114 ft 410 kts 21°
2026-05-06 20:04 38.93687 -112.70438 33108 ft 410 kts 21°
2026-05-06 20:04 38.98938 -112.67596 33103 ft 409 kts 21°
2026-05-06 20:05 39.04182 -112.64748 33093 ft 409 kts 21°
2026-05-06 20:05 39.09431 -112.61902 33094 ft 409 kts 21°
2026-05-06 20:06 39.14673 -112.59056 33094 ft 409 kts 21°
2026-05-06 20:06 39.19912 -112.56193 32941 ft 409 kts 21°
2026-05-06 20:07 39.22546 -112.54749 32002 ft 414 kts 21°
2026-05-06 20:07 39.25202 -112.53296 31202 ft 415 kts 21°
2026-05-06 20:07 39.27857 -112.51846 30436 ft 415 kts 21°
2026-05-06 20:07 39.30533 -112.50387 29459 ft 419 kts 21°
2026-05-06 20:08 39.33219 -112.48898 28399 ft 423 kts 22°
2026-05-06 20:08 39.35916 -112.47365 27440 ft 424 kts 22°
2026-05-06 20:08 39.38622 -112.45805 26353 ft 429 kts 22°
2026-05-06 20:08 39.41359 -112.44216 25267 ft 433 kts 22°
2026-05-06 20:09 39.44116 -112.42613 24191 ft 437 kts 22°
2026-05-06 20:09 39.46899 -112.40999 23140 ft 438 kts 22°
2026-05-06 20:09 39.49659 -112.39403 22370 ft 432 kts 22°
2026-05-06 20:09 39.52395 -112.37825 21570 ft 428 kts 22°
2026-05-06 20:10 39.55096 -112.36269 20790 ft 423 kts 22°
2026-05-06 20:10 39.57769 -112.34728 20061 ft 418 kts 22°
2026-05-06 20:10 39.60414 -112.33202 19340 ft 414 kts 22°
2026-05-06 20:10 39.63033 -112.31692 18635 ft 410 kts 22°
2026-05-06 20:11 39.65634 -112.30194 17753 ft 410 kts 22°
2026-05-06 20:11 39.68215 -112.28706 17022 ft 396 kts 22°
2026-05-06 20:11 39.70710 -112.27266 16391 ft 390 kts 22°
2026-05-06 20:11 39.73173 -112.25839 15790 ft 385 kts 22°
2026-05-06 20:12 39.75563 -112.24449 15287 ft 377 kts 23°
2026-05-06 20:12 39.77904 -112.23084 15148 ft 360 kts 22°
2026-05-06 20:12 39.80143 -112.21777 15031 ft 345 kts 22°
2026-05-06 20:12 39.82285 -112.20528 14905 ft 329 kts 22°
2026-05-06 20:13 39.84276 -112.19366 14754 ft 299 kts 22°
2026-05-06 20:13 39.86133 -112.18286 14633 ft 287 kts 22°
2026-05-06 20:13 39.87928 -112.17243 14420 ft 279 kts 22°
2026-05-06 20:13 39.89685 -112.16222 14154 ft 274 kts 22°
2026-05-06 20:14 39.91421 -112.15214 13924 ft 272 kts 22°
2026-05-06 20:14 39.93140 -112.14213 13910 ft 271 kts 22°
2026-05-06 20:14 39.94860 -112.13210 13925 ft 271 kts 22°
2026-05-06 20:14 39.96584 -112.12208 13926 ft 272 kts 22°
2026-05-06 20:15 39.98371 -112.11393 13840 ft 273 kts 16°
2026-05-06 20:15 40.00183 -112.10676 13696 ft 272 kts 16°
2026-05-06 20:15 40.01993 -112.09963 13562 ft 272 kts 16°
2026-05-06 20:15 40.03808 -112.09247 13447 ft 272 kts 16°
2026-05-06 20:16 40.05617 -112.08528 13305 ft 272 kts 16°
2026-05-06 20:16 40.07428 -112.07807 13172 ft 272 kts 16°
2026-05-06 20:16 40.09238 -112.07084 13059 ft 272 kts 16°
2026-05-06 20:16 40.11025 -112.06371 12932 ft 272 kts 16°
2026-05-06 20:17 40.12838 -112.05645 12801 ft 273 kts 16°
2026-05-06 20:17 40.14654 -112.04915 12682 ft 273 kts 17°
2026-05-06 20:17 40.16471 -112.04185 12552 ft 273 kts 17°
2026-05-06 20:17 40.18288 -112.03455 12424 ft 274 kts 16°
2026-05-06 20:18 40.20111 -112.02723 12287 ft 274 kts 17°
2026-05-06 20:18 40.21934 -112.01993 12166 ft 274 kts 16°
2026-05-06 20:18 40.23758 -112.01264 12038 ft 274 kts 17°
2026-05-06 20:18 40.25585 -112.00533 11906 ft 275 kts 17°
2026-05-06 20:19 40.27406 -111.99807 11757 ft 271 kts 17°
2026-05-06 20:19 40.29208 -111.99086 11645 ft 270 kts 16°
2026-05-06 20:19 40.31002 -111.98368 11515 ft 271 kts 16°
2026-05-06 20:19 40.32796 -111.97647 11379 ft 269 kts 17°
2026-05-06 20:20 40.34584 -111.96926 11262 ft 267 kts 16°
2026-05-06 20:20 40.36322 -111.96225 11125 ft 256 kts 17°
2026-05-06 20:20 40.37993 -111.95550 11008 ft 248 kts 17°
2026-05-06 20:20 40.39625 -111.94893 10972 ft 244 kts 16°
2026-05-06 20:21 40.41260 -111.94273 10987 ft 246 kts 15°
2026-05-06 20:21 40.42904 -111.93678 10981 ft 244 kts 12°
2026-05-06 20:21 40.44604 -111.93490 10911 ft 249 kts 357°
2026-05-06 20:21 40.46321 -111.93686 10539 ft 246 kts 356°
2026-05-06 20:22 40.48043 -111.93896 10108 ft 252 kts 354°
2026-05-06 20:22 40.49791 -111.94115 9743 ft 248 kts 355°
2026-05-06 20:22 40.51481 -111.94312 9375 ft 242 kts 355°
2026-05-06 20:22 40.53143 -111.94503 9044 ft 237 kts 354°
2026-05-06 20:23 40.54752 -111.94688 8726 ft 234 kts 354°
2026-05-06 20:23 40.56348 -111.94872 8414 ft 226 kts 354°
2026-05-06 20:23 40.57898 -111.95050 8124 ft 219 kts 354°
2026-05-06 20:23 40.59348 -111.95217 7842 ft 200 kts 353°
2026-05-06 20:24 40.60677 -111.95369 7581 ft 185 kts 354°
2026-05-06 20:24 40.61919 -111.95513 7347 ft 175 kts 353°
2026-05-06 20:24 40.63093 -111.95649 7132 ft 167 kts 353°
2026-05-06 20:24 40.64232 -111.95780 6911 ft 165 kts 354°
2026-05-06 20:25 40.65369 -111.95912 6692 ft 165 kts 354°
2026-05-06 20:25 40.66495 -111.96043 6473 ft 161 kts 353°
2026-05-06 20:25 40.67594 -111.96169 6257 ft 159 kts 353°
2026-05-06 20:25 40.68666 -111.96293 6066 ft 150 kts 353°
2026-05-06 20:26 40.69702 -111.96413 5868 ft 149 kts 352°
2026-05-06 20:26 40.70380 -111.96491 5743 ft 147 kts 352°
2026-05-06 20:26 40.71412 -111.96610 5532 ft 149 kts 352°
2026-05-06 20:26 40.72455 -111.96727 5348 ft 150 kts 352°
2026-05-06 20:27 40.73485 -111.96846 5118 ft 149 kts 352°
2026-05-06 20:27 40.74519 -111.96978 4888 ft 151 kts 351°
2026-05-06 20:27 40.75566 -111.97097 4684 ft 153 kts 351°
2026-05-06 20:27 40.76613 -111.97212 4477 ft 150 kts 352°
2026-05-06 20:28 40.77616 -111.97331 4284 ft 141 kts 352°
2026-05-06 20:28 40.78514 -111.97441 4231 ft 105 kts 356°
2026-05-06 20:28 40.78940 -111.97491 4232 ft 28 kts 355°
2026-05-06 20:28 40.79118 -111.97515 4232 ft 22 kts 348°
2026-05-06 20:29 40.79216 -111.97641 4231 ft 19 kts 283°
2026-05-06 20:29 40.79202 -111.97800 4231 ft 16 kts 239°
2026-05-06 20:29 40.79109 -111.97820 4231 ft 13 kts 174°
2026-05-06 20:29 40.79024 -111.97810 4231 ft 12 kts 176°
2026-05-06 20:30 40.78939 -111.97802 4231 ft 12 kts 175°
2026-05-06 20:30 40.78773 -111.97791 4231 ft 11 kts 202°
2026-05-06 20:30 40.78746 -111.97893 4231 ft 18 kts 264°
2026-05-06 20:31 40.78735 -111.98065 4231 ft 15 kts 265°
2026-05-06 20:31 40.78726 -111.98149 4231 ft 2 kts 237°
2026-05-06 20:31 40.78711 -111.98157 4231 ft 5 kts 201°
2026-05-06 20:31 40.78665 -111.98156 4231 ft 6 kts 175°
2026-05-06 20:32 40.78658 -111.98155 4231 ft 0 kts 175°
2026-05-06 20:32 40.78650 -111.98154 4231 ft 1 kts 175°
2026-05-06 20:32 40.78649 -111.98154 4231 ft 0 kts 175°